GW0341 Weather Reports


time (UTC)temp
F
wind
direction
speed
knots
gust
knots
rain 1hr
in
rain 24hr
in
rain mn
in
humidity
%
barometer
mb
20260504041545 51 0.0 0.0 0.00 0.00 0.00 73 1017.9
20260504041028 51 0.0 0.0 0.00 0.00 0.00 73 1017.8
20260504040529 51 0.0 0.0 0.00 0.00 0.00 72 1017.8
20260504040043 51 0.0 0.0 0.00 0.00 0.00 72 1017.9
20260504035528 52 0.0 0.0 0.00 0.00 0.00 70 1017.9
20260504035027 52 0.0 0.0 0.00 0.00 0.00 69 1017.9
20260504034542 52 0.0 0.0 0.00 0.00 0.00 69 1017.9
20260504034027 53 0.0 0.0 0.00 0.00 0.00 67 1017.9
20260504033531 53 0.0 0.0 0.00 0.00 0.00 66 1017.9
20260504033037 52 0.0 0.0 0.00 0.00 0.00 67 1017.8
20260504032528 52 0.0 0.0 0.00 0.00 0.00 67 1017.7
20260504032028 52 0.0 0.0 0.00 0.00 0.00 68 1017.7
20260504031543 51 0.0 0.0 0.00 0.00 0.00 68 1017.6
20260504031028 52 0.0 0.0 0.00 0.00 0.00 68 1017.7
20260504030528 52 0.0 0.0 0.00 0.00 0.00 67 1017.7
20260504030045 52 0.0 0.0 0.00 0.00 0.00 65 1017.6
20260504025526 53 0.0 0.0 0.00 0.00 0.00 64 1017.5
20260504025029 54 0.0 0.0 0.00 0.00 0.00 62 1017.6
20260504024542 55 0.0 0.0 0.00 0.00 0.00 61 1017.6
20260504024029 55 0.0 0.0 0.00 0.00 0.00 62 1017.6
20260504023527 55 0.0 0.0 0.00 0.00 0.00 59 1017.5
20260504023037 55 0.0 0.0 0.00 0.00 0.00 59 1017.4
20260504022527 55 0.0 0.0 0.00 0.00 0.00 57 1017.3
20260504022028 56 0.0 0.0 0.00 0.00 0.00 57 1017.2
20260504021543 56 0.0 0.0 0.00 0.00 0.00 56 1017.1
20260504021029 56 0.0 0.0 0.00 0.00 0.00 56 1017.1
20260504020523 56 0.0 0.0 0.00 0.00 0.00 55 1017.0
20260504020044 57 0.0 0.0 0.00 0.00 0.00 54 1017.0
20260504015523 57 0.0 0.0 0.00 0.00 0.00 52 1017.0
20260504015030 57 0.0 0.0 0.00 0.00 0.00 53 1017.1
20260504014559 57 0.0 0.0 0.00 0.00 0.00 55 1017.1
20260504014030 58 0.0 0.0 0.00 0.00 0.00 51 1017.1
20260504013530 58 0.0 0.0 0.00 0.00 0.00 50 1017.0
20260504013050 58 0.0 0.0 0.00 0.00 0.00 51 1017.1
20260504012527 59 0.0 0.0 0.00 0.00 0.00 49 1017.0
20260504012026 59 0.0 0.0 0.00 0.00 0.00 48 1017.0
20260504011543 58 0.0 0.0 0.00 0.00 0.00 49 1017.0
20260504011025 58 0.0 0.0 0.00 0.00 0.00 49 1017.0
20260504010525 58 0.0 0.0 0.00 0.00 0.00 50 1017.0
20260504010040 59 0.0 0.0 0.00 0.00 0.00 49 1016.9
20260504005526 59 0.0 0.0 0.00 0.00 0.00 51 1017.0
20260504005027 59 0.0 0.0 0.00 0.00 0.00 50 1016.9
20260504004537 59 0.0 0.0 0.00 0.00 0.00 51 1017.0
20260504004026 59 0.0 0.0 0.00 0.00 0.00 50 1016.9
20260504003526 59 0.0 0.0 0.00 0.00 0.00 50 1016.7
20260504003045 59 0.0 0.0 0.00 0.00 0.00 50 1016.7
20260504002526 59 0.0 0.0 0.00 0.00 0.00 50 1016.7
20260504002026 59 0.0 0.0 0.00 0.00 0.00 51 1016.7
20260504001546 60 0.0 0.0 0.00 0.00 0.00 51 1016.6
20260504001026 60 0.0 0.0 0.00 0.00 0.00 50 1016.6
20260504000526 60 0.0 0.0 0.00 0.00 0.00 51 1016.6
20260504000048 61 0.0 0.0 0.00 0.00 0.00 49 1016.7
20260503235526 61 0.0 0.0 0.00 0.00 0.00 50 1016.8
20260503235026 61 0.0 0.0 0.00 0.00 0.00 50 1016.8
20260503234548 62 0.0 0.0 0.00 0.00 0.00 51 1016.8
20260503234026 62 0.0 0.0 0.00 0.00 0.00 49 1016.8
20260503233526 63 0.0 0.0 0.00 0.00 0.00 47 1016.8
20260503233037 63 0.0 0.0 0.00 0.00 0.00 47 1016.9
20260503232526 63 0.0 0.0 0.00 0.00 0.00 45 1017.0
20260503232027 63 0.0 0.0 0.00 0.00 0.00 44 1017.1
20260503231541 63 0.0 0.0 0.00 0.00 0.00 43 1017.1
20260503231029 63 0.0 0.0 0.00 0.00 0.00 43 1017.1
20260503230528 63 0.0 0.0 0.00 0.00 0.00 43 1017.1
20260503230042 64 0.0 0.0 0.00 0.00 0.00 44 1017.1
20260503225530 64 0.0 0.0 0.00 0.00 0.00 44 1017.1
20260503225026 64 0.0 0.0 0.00 0.00 0.00 45 1017.2
20260503224544 64 0.0 0.0 0.00 0.00 0.00 45 1017.2
20260503224026 64 0.0 0.0 0.00 0.00 0.00 40 1017.1
20260503223526 64 0.0 0.0 0.00 0.00 0.00 40 1017.1
20260503223044 65 0.0 0.0 0.00 0.00 0.00 41 1017.1
20260503222526 65 0.0 0.0 0.00 0.00 0.00 38 1017.1
20260503222026 65 0.0 0.0 0.00 0.00 0.00 42 1017.1
20260503221541 65 0.0 0.0 0.00 0.00 0.00 36 1017.2
20260503221026 66 0.0 0.0 0.00 0.00 0.00 36 1017.3
20260503220528 66 0.0 0.0 0.00 0.00 0.00 35 1017.3
20260503220048 66 0.0 0.0 0.00 0.00 0.00 37 1017.2
20260503215528 66 0.0 0.0 0.00 0.00 0.00 34 1017.3
20260503215026 66 0.0 0.0 0.00 0.00 0.00 36 1017.4
20260503214538 66 0.0 0.0 0.00 0.00 0.00 35 1017.4
20260503214027 66 0.0 0.0 0.00 0.00 0.00 36 1017.4
20260503213527 67 0.0 0.0 0.00 0.00 0.00 33 1017.4
20260503213038 67 0.0 0.0 0.00 0.00 0.00 32 1017.5
20260503212527 67 0.0 0.0 0.00 0.00 0.00 32 1017.6
20260503212027 68 0.0 0.0 0.00 0.00 0.00 29 1017.5
20260503211544 68 0.0 0.0 0.00 0.00 0.00 32 1017.6
20260503211026 68 0.0 0.0 0.00 0.00 0.00 31 1017.7
20260503210527 68 0.0 0.0 0.00 0.00 0.00 30 1017.6
20260503210046 68 0.0 0.0 0.00 0.00 0.00 33 1017.8
20260503205529 69 0.0 0.0 0.00 0.00 0.00 36 1017.8
20260503205027 68 0.0 0.0 0.00 0.00 0.00 32 1017.8
20260503204543 68 0.0 0.0 0.00 0.00 0.00 36 1017.9
20260503204026 67 0.0 0.0 0.00 0.00 0.00 35 1017.9
20260503203527 67 0.0 0.0 0.00 0.00 0.00 47 1017.9
20260503203045 67 0.0 0.0 0.00 0.00 0.00 48 1018.1
20260503202527 67 0.0 0.0 0.00 0.00 0.00 47 1018.0
20260503202027 66 0.0 0.0 0.00 0.00 0.00 46 1018.1
20260503201542 66 0.0 0.0 0.00 0.00 0.00 48 1018.2
20260503201026 66 0.0 0.0 0.00 0.00 0.00 47 1018.3
20260503200526 66 0.0 0.0 0.00 0.00 0.00 47 1018.2
20260503200043 66 0.0 0.0 0.00 0.00 0.00 48 1018.2
20260503195526 65 0.0 0.0 0.00 0.00 0.00 48 1018.3
20260503195026 66 0.0 0.0 0.00 0.00 0.00 47 1018.5
20260503194539 66 0.0 0.0 0.00 0.00 0.00 49 1018.6
20260503194026 66 0.0 0.0 0.00 0.00 0.00 46 1018.6
20260503193525 66 0.0 0.0 0.00 0.00 0.00 49 1018.7
20260503193049 65 0.0 0.0 0.00 0.00 0.00 51 1018.7
20260503192527 64 0.0 0.0 0.00 0.00 0.00 49 1018.9
20260503192029 64 0.0 0.0 0.00 0.00 0.00 50 1018.8
20260503191542 64 0.0 0.0 0.00 0.00 0.00 50 1019.0
20260503191026 64 0.0 0.0 0.00 0.00 0.00 48 1019.1
20260503190526 64 0.0 0.0 0.00 0.00 0.00 47 1019.3
20260503190041 64 0.0 0.0 0.00 0.00 0.00 49 1019.3
20260503185528 64 0.0 0.0 0.00 0.00 0.00 49 1019.3
20260503185026 64 0.0 0.0 0.00 0.00 0.00 49 1019.3
20260503184554 64 0.0 0.0 0.00 0.00 0.00 49 1019.4
20260503184027 64 0.0 0.0 0.00 0.00 0.00 49 1019.5
20260503183528 64 0.0 0.0 0.00 0.00 0.00 50 1019.5
20260503183054 64 0.0 0.0 0.00 0.00 0.00 48 1019.5
20260503182528 64 0.0 0.0 0.00 0.00 0.00 48 1019.6
20260503182026 63 0.0 0.0 0.00 0.00 0.00 49 1019.7
20260503181538 63 0.0 0.0 0.00 0.00 0.00 48 1019.8
20260503181026 63 0.0 0.0 0.00 0.00 0.00 47 1019.9
20260503180526 63 0.0 0.0 0.00 0.00 0.00 48 1019.9
20260503180037 63 0.0 0.0 0.00 0.00 0.00 53 1020.0
20260503175526 62 0.0 0.0 0.00 0.00 0.00 49 1020.0
20260503175030 62 0.0 0.0 0.00 0.00 0.00 50 1020.1
20260503174541 62 0.0 0.0 0.00 0.00 0.00 49 1020.2
20260503174028 62 0.0 0.0 0.00 0.00 0.00 53 1020.2
20260503173528 62 0.0 0.0 0.00 0.00 0.00 51 1020.4
20260503173045 61 0.0 0.0 0.00 0.00 0.00 55 1020.4
20260503172528 62 0.0 0.0 0.00 0.00 0.00 55 1020.5
20260503172028 61 0.0 0.0 0.00 0.00 0.00 54 1020.7
20260503171541 61 0.0 0.0 0.00 0.00 0.00 50 1020.7
20260503171031 61 0.0 0.0 0.00 0.00 0.00 51 1020.7
20260503170529 61 0.0 0.0 0.00 0.00 0.00 55 1020.9
20260503150528 55 0.0 0.0 0.00 0.00 0.00 60 1022.2
20260503131028 46 0.0 0.0 0.00 0.00 0.00 87 1022.1
20260503130528 46 0.0 0.0 0.00 0.00 0.00 88 1022.1
20260503110527 40 0.0 0.0 0.00 0.00 0.00 94 1021.3
20260503081609 42 0.0 0.0 0.00 0.00 0.00 91 1019.8
20260503081027 42 0.0 0.0 0.00 0.00 0.00 91 1019.7
20260503080527 43 0.0 0.0 0.00 0.00 0.00 91 1019.7
20260503072526 43 0.0 0.0 0.00 0.00 0.00 90 1019.5
20260503072026 43 0.0 0.0 0.00 0.00 0.00 89 1019.4
20260503071543 43 0.0 0.0 0.00 0.00 0.00 89 1019.4
20260503071026 43 0.0 0.0 0.00 0.00 0.00 89 1019.3
20260503070526 43 0.0 0.0 0.00 0.00 0.00 89 1019.4
20260503055026 45 0.0 0.0 0.00 0.00 0.00 86 1019.3
20260503054551 45 0.0 0.0 0.00 0.00 0.00 85 1019.2
20260503054028 45 0.0 0.0 0.00 0.00 0.00 85 1019.2
20260503053526 45 0.0 0.0 0.00 0.00 0.00 85 1019.2
20260503053042 46 0.0 0.0 0.00 0.00 0.00 84 1019.1
20260503052526 46 0.0 0.0 0.00 0.00 0.00 84 1019.1
20260503052026 46 0.0 0.0 0.00 0.00 0.00 84 1019.1
20260503051541 46 0.0 0.0 0.00 0.00 0.00 84 1019.1
20260503051026 46 0.0 0.0 0.00 0.00 0.00 83 1019.1
20260503050528 46 0.0 0.0 0.00 0.00 0.00 84 1019.1
20260503050042 46 0.0 0.0 0.00 0.00 0.00 84 1019.1
20260503045529 46 0.0 0.0 0.00 0.00 0.00 83 1019.1
20260503045027 47 0.0 0.0 0.00 0.00 0.00 83 1019.0
20260503044541 47 0.0 0.0 0.00 0.00 0.00 83 1018.9
20260503044027 47 0.0 0.0 0.00 0.00 0.00 83 1018.9
20260503043526 47 0.0 0.0 0.00 0.00 0.00 83 1019.0
20260503043037 47 0.0 0.0 0.00 0.00 0.00 83 1019.0
20260503042525 47 0.0 0.0 0.00 0.00 0.00 82 1018.9
20260503042024 47 0.0 0.0 0.00 0.00 0.00 81 1018.8